Weather History for Lancaster, CA

Change the Weather History Date:

Sunday, September 21, 2014

  Actual Average Record
Temperature  
Mean Temperature 74 °F 72 °F  
Max Temperature 89 °F 89 °F 104 °F (1949)
Min Temperature 59 °F 55 °F 38 °F (1978)
Degree Days  
Heating Degree Days 0    
Month to date heating degree days 0  
Since 1 July heating degree days 0  
Cooling Degree Days 9    
Month to date cooling degree days 286  
Year to date cooling degree days 1937  
Growing Degree Days 24 (Base 50)    
Moisture  
Dew Point 46 °F    
Average Humidity 37    
Maximum Humidity 56    
Minimum Humidity 18    
Precipitation  
Precipitation 0.00 in 0.00 in 0.03 in (2007)
Month to date precipitation T 0.09  
Year to date precipitation 2.35 5.19  
Since 1 July precipitation 0.03 0.28  
Snow  
Snow 0.00 in - 0.00 in ()
Month to date snowfall 0.0  
Since 1 July snowfall 0.0  
Since 1 September snowfall 0.0  
Snow Depth 0.00 in    
Sea Level Pressure  
Sea Level Pressure 29.93 in    
Wind  
Wind Speed 8 mph (WSW)    
Max Wind Speed 23 mph    
Max Gust Speed 28 mph    
Visibility 10 miles    
Events      
T = Trace of Precipitation, MM = Missing Value Source: NWS Daily Summary

Daily Weather History Graph

Daily Weather History Graph

Search for Another Location

Airport:

Trip Planner

Search our weather history database for the weather conditions in past years. The results will help you decide how hot, cold, wet, or windy it might be!

Date:

Astronomy

Sep. 21, 2014 Rise Set
Actual Time 6:40 AM PDT 6:50 PM PDT
Civil Twilight 6:15 AM PDT 7:16 PM PDT
Nautical Twilight 5:45 AM PDT 7:45 PM PDT
Astronomical Twilight 5:15 AM PDT 8:15 PM PDT
Moon 4:22 AM PDT (9/21) 5:26 PM PDT (9/21)
Length of Visible Light 13h 01m
Length of Day
12h 10m
Waning Crescent, 6% of the Moon is Illuminated
Sep 21
Waning Crescent
Sep 23
New
Oct 1
First Quarter
Oct 8
Full
Oct 15
Last Quarter

Hourly Weather History & Observations

Time (PDT) Temp. Dew Point Humidity Pressure Visibility Wind Dir Wind Speed Gust Speed Precip Events Conditions
12:56 AM 68.0 °F 48.0 °F 49% 29.91 in 10.0 mi SW 13.8 mph - N/A   Partly Cloudy
1:56 AM 66.0 °F 48.9 °F 54% 29.90 in 10.0 mi WSW 11.5 mph - N/A   Clear
2:56 AM 64.0 °F 45.0 °F 50% 29.90 in 10.0 mi WSW 6.9 mph - N/A   Clear
3:56 AM 63.0 °F 46.0 °F 54% 29.90 in 10.0 mi West 5.8 mph - N/A   Clear
4:56 AM 63.0 °F 45.0 °F 52% 29.91 in 10.0 mi Calm Calm - N/A   Clear
5:56 AM 61.0 °F 45.0 °F 56% 29.92 in 10.0 mi WNW 10.4 mph - N/A   Clear
6:56 AM 60.1 °F 45.0 °F 57% 29.95 in 10.0 mi WNW 9.2 mph - N/A   Clear
7:56 AM 63.0 °F 44.1 °F 50% 29.97 in 10.0 mi Calm Calm - N/A   Clear
8:56 AM 70.0 °F 43.0 °F 38% 29.98 in 10.0 mi Calm Calm - N/A   Clear
9:56 AM 75.9 °F 42.1 °F 30% 29.98 in 10.0 mi SE 4.6 mph - N/A   Clear
10:56 AM 79.0 °F 46.0 °F 31% 29.97 in 10.0 mi Calm Calm - N/A   Clear
11:56 AM 84.0 °F 46.0 °F 26% 29.95 in 10.0 mi Variable 3.5 mph - N/A   Clear
12:56 PM 84.0 °F 43.0 °F 24% 29.94 in 10.0 mi Variable 3.5 mph - N/A   Clear
1:56 PM 87.1 °F 39.9 °F 19% 29.91 in 10.0 mi Variable 3.5 mph - N/A   Clear
2:56 PM 89.1 °F 41.0 °F 19% 29.89 in 10.0 mi Variable 3.5 mph - N/A   Clear
3:50 PM 87.8 °F 46.4 °F 24% 29.94 in 30.0 mi SW 17.3 mph - N/A   Clear
3:56 PM 87.1 °F 45.0 °F 23% 29.88 in 10.0 mi SW 17.3 mph - N/A   Clear
4:56 PM 86.0 °F 42.1 °F 21% 29.88 in 10.0 mi SW 16.1 mph - N/A   Clear
5:56 PM 82.0 °F 44.1 °F 26% 29.90 in 10.0 mi SW 18.4 mph 25.3 mph N/A   Clear
6:56 PM 75.9 °F 50.0 °F 40% 29.93 in 10.0 mi West 19.6 mph - N/A   Clear
7:56 PM 73.9 °F 48.0 °F 40% 29.94 in 10.0 mi West 13.8 mph - N/A   Clear
8:56 PM 72.0 °F 48.9 °F 44% 29.96 in 10.0 mi WSW 12.7 mph - N/A   Clear
9:56 PM 70.0 °F 48.9 °F 47% 29.95 in 10.0 mi WSW 8.1 mph - N/A   Clear
10:56 PM 69.1 °F 48.9 °F 49% 29.95 in 10.0 mi WSW 8.1 mph - N/A   Clear
11:56 PM 70.0 °F 50.0 °F 49% 29.96 in 10.0 mi Calm Calm - N/A   Clear